Location: Seven Kings
(51.5667°N, 0.1000°E)
Time: 03:08:05
(UTC+00:00)

DMSP B5D1-3 - Pass Details

Date: 29 October 2020
Orbit: 768 x 780 km, 98.5° (Epoch: 24 November)

Event Time Altitude Azimuth Distance (km) Brightness Sun altitude
Rises 19:01:44 0° 15° (NNE) 3,270 7.7 -22.9°
Reaches altitude 10° 19:04:03 10° 16° (NNE) 2,340 6.9 -23.3°
Maximum altitude 19:09:14 86° 104° (ESE) 788 4.4 -24.1°
Drops below altitude 10° 19:14:23 10° 195° (SSW) 2,328 7.1 -24.9°
Sets 19:16:41 0° 196° (SSW) 3,253 7.8 -25.2°
